Find Starlink 3562

NORAD ID: 51861 Int'l Des: 2022-022 Owner: SPXS Country: US Constellation: starlink operational
LEOCIRCULAR

实时位置

正在加载3D地球...

关于 Starlink 3562

正在加载描述...

即将过境

Passes for default location (London). Set your location on the main map for personalized predictions.

高度历史

Loading altitude history...

两行轨道根数

1 51861U 22022K 26127.20375135 .00001585 00000-0 11761-3 0 9991
2 51861 53.2161 106.4412 0001368 86.7062 273.4086 15.08843240231861
Epoch: May 7, 2026 • Age: 8 hours

当前状态

高度 554.5 km
速度 7.58 km/s
星下点 -41.89°S, 8.95°E
发射日期 Mar 3, 2022
运行时间 4.1 years
类型 internet

技术详情

分类 Payload
质量 297.00 kg
干质量 275.00 kg
总质量 297.00 kg
长度 0.20 m
直径 2.80 m
跨度 9.00 m
形状 Box + pan
制造商 SPXS
平台类型 Starlink
阶段状态 In Orbit
所有者/国家 SPXS/US

Most Searched